Flag for Romania Weather past 2 weeks in Sibiu, Romania

Now
61 °F

Sunny.


Feels Like: 61 °F
Forecast: 51 / 79 °F
Wind: No wind

Location: Sibiu Airport

Current Time: Aug 30, 2014 at 10:11:55 PM

Latest Report: Aug 30, 2014 at 9:00 PM


Visibility: 10 mi

Pressure: 30.07 "Hg

Humidity: 83%

Dew point: 55 °F

Location of SibiuLocation

Historic Weather in Sibiu — Graph

°F

Sibiu temperature yesterday

Maximum temperature yesterday: 73 °F (at 3:30 PM)
Minimum temperature yesterday: 45 °F (at 5:00 AM)
Average temperature yesterday: 60 °F

Past Weeks' High & Low Weather Summary

 TemperatureHumidityPressure
High82 °F (Aug 21, 1:30 PM)100% (Aug 16, 7:00 AM)30.21 "Hg (Aug 16, 7:00 AM)
Low45 °F (Aug 29, 5:00 AM)26% (Aug 19, 1:00 PM)29.83 "Hg (Aug 24, 6:30 AM)
Average65 °F70%30.01 "Hg
* Reported Aug 15 8:00 PM — Aug 30 8:00 PM, Sibiu, Weather by CustomWeather, © 2014

Note: Actual official high and low records may vary slightly from our data, if they occured in-between our weather recording intervals... More about our weather records

Advertising

Sibiu weather history for previous 24 hours

 ConditionsComfort  
Time TempWeatherWind HumidityBarometerVisibility
8:00 PM
Aug 30
68 °FSunny.2 mph60%30.07 "Hg10 mi
7:30 PM72 °FPassing clouds.5 mph50%30.07 "HgN/A
7:00 PM73 °FPassing clouds.5 mph44%30.09 "HgN/A
6:30 PM75 °FPassing clouds.7 mph41%30.09 "HgN/A
6:00 PM75 °FPassing clouds.7 mph39%30.09 "HgN/A
5:30 PM77 °FScattered clouds.7 mph34%30.09 "HgN/A
5:00 PM75 °FScattered clouds.5 mph36%30.09 "HgN/A
4:30 PM75 °FScattered clouds.7 mph39%30.09 "HgN/A
4:00 PM77 °FScattered clouds.2 mph32%30.09 "HgN/A
3:30 PM75 °FScattered clouds.7 mph34%30.09 "HgN/A
3:00 PM75 °FPassing clouds.7 mph31%30.12 "HgN/A
2:30 PM75 °FSunny.7 mph34%30.12 "Hg10 mi
2:00 PM75 °FPassing clouds.9 mph36%30.12 "HgN/A
1:30 PM75 °FPassing clouds.7 mph34%30.12 "HgN/A
1:00 PM75 °FPassing clouds.5 mph31%30.15 "HgN/A
12:30 PM73 °FSunny.5 mph33%30.15 "Hg10 mi
12:00 PM73 °FSunny.2 mph41%30.15 "Hg10 mi
11:30 AM70 °FSunny.2 mph53%30.15 "Hg10 mi
11:00 AM68 °FSunny.2 mph56%30.15 "Hg10 mi
10:30 AM64 °FSunny.2 mph60%30.15 "Hg10 mi
10:00 AM61 °FSunny.5 mph68%30.18 "Hg10 mi
9:30 AM59 °FSunny.2 mph72%30.15 "Hg10 mi
9:00 AM57 °FPassing clouds.5 mph82%30.18 "HgN/A
8:30 AM54 °FSunny.5 mph82%30.18 "Hg10 mi
8:00 AM52 °FSunny.2 mph88%30.18 "Hg10 mi
7:30 AM48 °FClear.2 mph100%30.18 "Hg10 mi
7:00 AM48 °FClear.No wind94%30.15 "Hg10 mi
6:00 AM48 °FClear.No wind100%30.15 "Hg10 mi
5:30 AM46 °FClear.2 mph100%30.15 "Hg10 mi
5:00 AM48 °FClear.2 mph100%30.15 "Hg10 mi
4:00 AM50 °FClear.No wind88%30.15 "Hg10 mi
3:00 AM52 °FClear.No wind94%30.15 "Hg10 mi
2:00 AM50 °FPassing clouds.5 mph94%30.15 "HgN/A
1:00 AM52 °FClear.5 mph94%30.15 "Hg10 mi
12:00 AM54 °FClear.No wind88%30.15 "Hg10 mi
10:00 PM
Aug 29
57 °FClear.5 mph82%30.15 "Hg10 mi
Weather by CustomWeather, © 2014

See weather overviewHow to use our weather pages